Voltar ao catálogo

SL-12 DEB

AtivoLEO
NORAD 18767·DEBRIS·🇷🇺 Russia

Lançado May 30, 1985 de Baikonur Cosmodrome

Loading…

Próximas Passagens (próximas 24 horas)

TLE

AtualizadoSource: Space-Track

Época: Sep 14, 2026, 07:02 UTC

1 18767U 85042K   26257.29307241  .00001113  00000-0  67519-3 0  9995
2 18767  66.5850  10.7256 0139827 188.3218 171.5548 14.05266015963260

Acompanhe SL-12 DEB em tempo real com AllMySat

Download on the App Store